Watford City, ND

4:03 PM CST on November 14, 2019 (GMT -0600)
Watford City

Weather History for KS25 - October, 2019

Change the Weather History Date:

Wednesday, October 23, 2019

  Actual Average (WUND) Record (WUND)
Temperature  
Mean Temperature 34 °F -  
Max Temperature 42 °F - - (-1)
Min Temperature 26 °F - - (-1)
Degree Days  
Heating Degree Days 31    
Moisture  
Dew Point 25 °F    
Average Humidity 66    
Maximum Humidity 93    
Minimum Humidity 42    
Precipitation  
Precipitation 0.00 in - - ()
Sea Level Pressure  
Sea Level Pressure 30.14 in    
Wind  
Wind Speed 8 mph (WNW)    
Max Wind Speed 14 mph    
Max Gust Speed 20 mph    
Visibility 10 miles    
Events      
Averages and records for this station are not official NWS values.
T = Trace of Precipitation, MM = Missing Value Source: NWS Daily Summary

Daily Weather History Graph

Daily Weather History Graph

Search for Another Location

Airport or City:

Astronomy

Oct. 23, 2019 Rise Set
Actual Time 8:23 AM CDT 6:50 PM CDT
Civil Twilight 7:51 AM CDT 7:21 PM CDT
Nautical Twilight 7:15 AM CDT 7:57 PM CDT
Astronomical Twilight 6:40 AM CDT 8:33 PM CDT
Moon 2:12 AM CDT (10/23) 5:10 PM CDT (10/23)
Length of Visible Light 11h 29m
Length of Day
10h 26m
Waning Crescent, 26% of the Moon is Illuminated
Oct 23
Waning Crescent
Oct 27
New
Nov 4
First Quarter
Nov 12
Full
Nov 19
Last Quarter

Hourly Weather History & Observations

Time (CDT) Temp. Windchill Dew Point Humidity Pressure Visibility Wind Dir Wind Speed Gust Speed Precip Events Conditions
12:55 AM 37.4 °F 30.8 °F 26.6 °F 65% 29.79 in 10.0 mi East 9.2 mph - N/A   Clear
1:55 AM 35.6 °F 29.2 °F 24.8 °F 65% 29.81 in 10.0 mi East 8.1 mph - N/A   Overcast
2:35 AM 35.6 °F 30.7 °F 26.6 °F 70% 29.83 in 10.0 mi ENE 5.8 mph - N/A   Overcast
2:55 AM 35.6 °F 31.7 °F 26.6 °F 70% 29.84 in 8.0 mi East 4.6 mph - N/A   Mostly Cloudy
3:15 AM 35.6 °F 30.7 °F 26.6 °F 70% 29.84 in 10.0 mi NE 5.8 mph - N/A   Scattered Clouds
3:35 AM 35.6 °F 29.2 °F 24.8 °F 65% 29.85 in 10.0 mi NE 8.1 mph - N/A   Scattered Clouds
8:15 AM 26.6 °F 21.2 °F 24.8 °F 93% 30.04 in 10.0 mi North 4.6 mph - N/A   Clear
8:35 AM 26.6 °F 20.0 °F 24.8 °F 93% 30.05 in 10.0 mi North 5.8 mph - N/A   Clear
8:55 AM 26.6 °F - 24.8 °F 93% 30.06 in 10.0 mi Calm Calm - N/A   Clear
9:15 AM 26.6 °F - 24.8 °F 93% 30.07 in 10.0 mi Calm Calm - N/A   Clear
9:35 AM 28.4 °F 23.3 °F 26.6 °F 93% 30.09 in 10.0 mi North 4.6 mph - N/A   Clear
9:55 AM 30.2 °F 25.4 °F 24.8 °F 80% 30.10 in 10.0 mi WNW 4.6 mph - N/A   Clear
10:15 AM 30.2 °F 23.4 °F 24.8 °F 80% 30.11 in 10.0 mi NW 6.9 mph - N/A   Clear
10:35 AM 32.0 °F 26.4 °F 24.8 °F 75% 30.12 in 10.0 mi NW 5.8 mph - N/A   Clear
11:35 AM 35.6 °F 28.0 °F 24.8 °F 65% 30.14 in 10.0 mi NW 10.4 mph - N/A   Clear
11:55 AM 37.4 °F 30.3 °F 23.0 °F 56% 30.15 in 10.0 mi WNW 10.4 mph 16.1 mph N/A   Clear
12:15 PM 37.4 °F 29.3 °F 23.0 °F 56% 30.15 in 10.0 mi NNW 12.7 mph - N/A   Partly Cloudy
12:35 PM 37.4 °F 30.8 °F 21.2 °F 52% 30.16 in 10.0 mi NNW 9.2 mph 19.6 mph N/A   Mostly Cloudy
12:55 PM 39.2 °F 32.0 °F 21.2 °F 49% 30.17 in 10.0 mi NNW 11.5 mph 18.4 mph N/A   Overcast
1:15 PM 37.4 °F 31.4 °F 23.0 °F 56% 30.17 in 10.0 mi NNW 8.1 mph 15.0 mph N/A   Overcast
1:35 PM 39.2 °F 32.0 °F 23.0 °F 52% 30.17 in 10.0 mi NNW 11.5 mph 17.3 mph N/A   Overcast
1:55 PM 39.2 °F 32.5 °F 23.0 °F 52% 30.17 in 10.0 mi NNW 10.4 mph - N/A   Mostly Cloudy
2:15 PM 39.2 °F 33.6 °F 23.0 °F 52% 30.16 in 10.0 mi NW 8.1 mph 13.8 mph N/A   Scattered Clouds
2:35 PM 39.2 °F 33.6 °F 21.2 °F 49% 30.16 in 10.0 mi NW 8.1 mph 16.1 mph N/A   Scattered Clouds
2:55 PM 41.0 °F 35.8 °F 23.0 °F 49% 30.16 in 10.0 mi NW 8.1 mph 18.4 mph N/A   Mostly Cloudy
3:15 PM 42.8 °F 35.8 °F 23.0 °F 46% 30.17 in 10.0 mi NNW 13.8 mph - N/A   Partly Cloudy
3:35 PM 42.8 °F 37.5 °F 21.2 °F 42% 30.17 in 10.0 mi NW 9.2 mph - N/A   Partly Cloudy
3:55 PM 42.8 °F 36.2 °F 23.0 °F 46% 30.18 in 10.0 mi WNW 12.7 mph 19.6 mph N/A   Mostly Cloudy
4:15 PM 41.0 °F 34.7 °F 23.0 °F 49% 30.18 in 10.0 mi NW 10.4 mph - N/A   Mostly Cloudy
4:35 PM 41.0 °F 33.9 °F 21.2 °F 45% 30.18 in 10.0 mi NW 12.7 mph - N/A   Scattered Clouds
4:55 PM 42.8 °F 35.8 °F 21.2 °F 42% 30.19 in 10.0 mi WNW 13.8 mph - N/A   Partly Cloudy
5:15 PM 41.0 °F 34.3 °F 23.0 °F 49% 30.19 in 10.0 mi West 11.5 mph - N/A   Partly Cloudy
5:35 PM 41.0 °F 35.8 °F 23.0 °F 49% 30.20 in 10.0 mi WNW 8.1 mph 16.1 mph N/A   Partly Cloudy
5:55 PM 39.2 °F 32.5 °F 23.0 °F 52% 30.21 in 10.0 mi West 10.4 mph 18.4 mph N/A   Clear
6:15 PM 39.2 °F 33.0 °F 23.0 °F 52% 30.21 in 10.0 mi West 9.2 mph - N/A   Clear
6:35 PM 37.4 °F 31.4 °F 23.0 °F 56% 30.21 in 10.0 mi West 8.1 mph - N/A   Clear
6:55 PM 35.6 °F 29.2 °F 23.0 °F 60% 30.22 in 10.0 mi West 8.1 mph - N/A   Clear
7:15 PM 35.6 °F 28.6 °F 23.0 °F 60% 30.23 in 10.0 mi West 9.2 mph - N/A   Clear
7:35 PM 33.8 °F 27.0 °F 23.0 °F 65% 30.23 in 10.0 mi West 8.1 mph - N/A   Clear
7:55 PM 33.8 °F 27.0 °F 23.0 °F 65% 30.24 in 10.0 mi West 8.1 mph - N/A   Clear
8:15 PM 32.0 °F 24.8 °F 24.8 °F 75% 30.24 in 10.0 mi West 8.1 mph - N/A   Clear
8:35 PM 32.0 °F 23.6 °F 24.8 °F 75% 30.24 in 10.0 mi West 10.4 mph - N/A   Clear
8:55 PM 33.8 °F 25.8 °F 24.8 °F 70% 30.25 in 10.0 mi West 10.4 mph - N/A   Mostly Cloudy
9:15 PM 33.8 °F 27.0 °F 26.6 °F 75% 30.25 in 10.0 mi West 8.1 mph - N/A   Mostly Cloudy
9:35 PM 33.8 °F 26.4 °F 26.6 °F 75% 30.25 in 10.0 mi West 9.2 mph - N/A   Mostly Cloudy
9:55 PM 33.8 °F 27.0 °F 28.4 °F 81% 30.25 in 10.0 mi WSW 8.1 mph - N/A   Mostly Cloudy
10:15 PM 33.8 °F 27.7 °F 30.2 °F 87% 30.26 in 10.0 mi WSW 6.9 mph - N/A   Overcast
10:35 PM 35.6 °F 28.6 °F 30.2 °F 81% 30.26 in 10.0 mi West 9.2 mph - N/A   Overcast
10:55 PM 35.6 °F 29.9 °F 30.2 °F 81% 30.26 in 10.0 mi West 6.9 mph - N/A   Overcast
11:15 PM 35.6 °F 30.7 °F 32.0 °F 87% 30.26 in 10.0 mi WSW 5.8 mph - N/A   Overcast
11:35 PM 35.6 °F - 32.0 °F 87% 30.27 in 10.0 mi Calm Calm - N/A   Overcast
11:55 PM 35.6 °F 30.7 °F 33.8 °F 93% 30.27 in 10.0 mi West 5.8 mph - N/A   Overcast